COSMOS 1261 DEB, 12892

Orbit data source: Space-Track

COSMOS 1261 DEB, 12892 is space debris in HEO originally from a launch on Tue, 31 Mar 1981 UTC launched from the Plesetsk Missile And Space Complex (PKMTR). Debris objects in space refer to the collection of defunct objects orbiting the Earth. Examples of debris include non-operational satellites, rocket bodies, and fragments generated from explosions, collisions, or faulty payload assembly.

Loading next visibility...
Identifier
12892, 1981-031E
Orbit
HEO
Country
Flag of CISCIS
Related business
Manufacturer
Unknown
Mission
Spacecraft
Bus & Motor
Unknown
Mass
Unknown
Launch date (UTC)
1981-03-31 (45 years ago)
Launch vehicle
Unknown
Launch site
Plesetsk Missile And Space Complex (PKMTR)
Object type
Payload
Rocket body
Debris
Shape & HBR
Unknown shape, 1.1 m
Radar Cross Section
Large (>1 m²)

Expand to show TLE details & history
Last TLE update: 12 hours ago

TLE from 12 hours ago
0 COSMOS 1261 DEB
1 12892U 81031E   26125.50134644  .00031656  10100-6  27895-2 0  9990
2 12892  62.1481  92.2066 7500842  46.6995 354.9424  2.03504656258564
Epoch: 2026-05-05T12:01Z
TLE epoch observation values (Epoch: 2026-05-05T12:01:56.332Z)
Latitude
0.00001°
Longitude
48.29024°
Altitude
1,225.135 km
Speed
9.472 km/s
True Right ascension
06h 08m 36s
True Declination
0° 00' 00"
Sunlit
Object was in daylight at epoch
Visualization orbit readout
Latitude
Unknown
Longitude
Unknown
Altitude
Unknown
Speed
Unknown
Apparent Right ascension
Unknown
Apparent Declination
Unknown
Sunlit
N/A
Visualization observer readout
Local Sidereal Time
08:15:42
Azimuth
Unknown
Elevation
Unknown
Doppler factor
Unknown
Orbital elements
Apogee altitude
39,654.055 km
Perigee altitude
195.359 km
Semi-major axis
26,302.844 km
Eccentricity
0.75008
Inclination
62.1481°
RAAN
92.2066°
Arg. of periapsis
46.6995°
True anomaly
311.84373°
Mean anomaly
354.9424°
Eccentric anomaly
340.83022°
Mean motion
0.50879 °/min
Orbital period
707.56 mins
BSTAR
0.0027895
Loading maneuver chart data...
Computing Atmospheric mass density...
Loading historical data...
Loading historical data...
Loading historical data...
Loading historical data...
Loading historical data...
Loading historical data...
Loading historical data...

Documentation

Showing up to 5 results
|